• In Germany
  • List of Countries
  • For 7 days
  • Water Temperature
  • Satellite Maps
  • Weather Map
  • Weather Widgets
  • user-avatar
    Login

    Hourly Weather Wlora

    Today, 23 July, Sunday

    Time Temperature Precipitation Wind Pressure Humidity
    00:00 +28°C° 0 mm 2 mps 761 mmHg 50%
    01:00 +28°C° 0 mm 3 mps 761 mmHg 50%
    02:00 +28°C° 0 mm 3 mps 761 mmHg 49%
    03:00 +28°C° 0 mm 3 mps 761 mmHg 48%
    04:00 +28°C° 0 mm 3 mps 760 mmHg 47%
    05:00 +29°C° 0 mm 3 mps 760 mmHg 44%
    06:00 +31°C° 0 mm 3 mps 760 mmHg 41%
    07:00 +34°C° 0 mm 3 mps 760 mmHg 38%
    08:00 +35°C° 0 mm 3 mps 761 mmHg 35%
    09:00 +36°C° 0 mm 3 mps 761 mmHg 33%
    10:00 +38°C° 0 mm 3 mps 761 mmHg 30%
    11:00 +38°C° 0 mm 3 mps 760 mmHg 29%
    12:00 +39°C° 0 mm 3 mps 760 mmHg 28%
    13:00 +40°C° 0 mm 4 mps 760 mmHg 27%
    14:00 +39°C° 0 mm 3 mps 759 mmHg 30%
    15:00 +38°C° 0 mm 3 mps 759 mmHg 32%
    16:00 +38°C° 0 mm 2 mps 759 mmHg 35%
    17:00 +36°C° 0 mm 2 mps 759 mmHg 41%
    18:00 +34°C° 0 mm 2 mps 759 mmHg 47%
    19:00 +31°C° 0 mm 1 mps 759 mmHg 53%
    20:00 +30°C° 0 mm 2 mps 759 mmHg 54%
    21:00 +29°C° 0 mm 2 mps 759 mmHg 56%
    22:00 +28°C° 0 mm 3 mps 760 mmHg 58%
    23:00 +28°C° 0 mm 2 mps 759 mmHg 58%

    Tomorrow, 24 July, Monday

    Time Temperature Precipitation Wind Pressure Humidity
    00:00 +27°C° 0 mm 2 mps 759 mmHg 57%
    01:00 +27°C° 0 mm 2 mps 759 mmHg 57%
    02:00 +27°C° 0 mm 2 mps 759 mmHg 55%
    03:00 +26°C° 0 mm 2 mps 758 mmHg 53%
    04:00 +26°C° 0 mm 3 mps 758 mmHg 51%
    05:00 +28°C° 0 mm 2 mps 758 mmHg 47%
    06:00 +30°C° 0 mm 2 mps 758 mmHg 42%
    07:00 +31°C° 0 mm 2 mps 758 mmHg 38%
    08:00 +34°C° 0 mm 2 mps 758 mmHg 34%
    09:00 +36°C° 0 mm 3 mps 758 mmHg 30%
    10:00 +37°C° 0 mm 3 mps 758 mmHg 26%
    11:00 +38°C° 0 mm 3 mps 757 mmHg 25%
    12:00 +39°C° 0 mm 3 mps 757 mmHg 24%
    13:00 +39°C° 0 mm 3 mps 756 mmHg 23%
    14:00 +39°C° 0 mm 3 mps 755 mmHg 24%
    15:00 +39°C° 0 mm 3 mps 755 mmHg 26%
    16:00 +39°C° 0 mm 3 mps 754 mmHg 27%
    17:00 +36°C° 0 mm 3 mps 754 mmHg 33%
    18:00 +34°C° 0 mm 4 mps 754 mmHg 38%
    19:00 +32°C° 0 mm 4 mps 754 mmHg 44%
    20:00 +30°C° 0 mm 5 mps 754 mmHg 45%
    21:00 +29°C° 0 mm 5 mps 754 mmHg 46%
    22:00 +29°C° 0 mm 6 mps 754 mmHg 47%
    23:00 +28°C° 0 mm 6 mps 754 mmHg 48%

    Day after tomorrow, 25 July, Tuesday

    Time Temperature Precipitation Wind Pressure Humidity
    00:00 +28°C° 0 mm 6 mps 753 mmHg 49%
    01:00 +27°C° 0 mm 6 mps 753 mmHg 51%
    02:00 +27°C° 0 mm 6 mps 753 mmHg 54%
    03:00 +26°C° 0 mm 5 mps 753 mmHg 58%
    04:00 +25°C° 0 mm 5 mps 753 mmHg 62%
    05:00 +27°C° 0 mm 4 mps 753 mmHg 62%
    06:00 +28°C° 0 mm 3 mps 753 mmHg 62%
    07:00 +29°C° 0 mm 3 mps 753 mmHg 62%
    08:00 +30°C° 0 mm 4 mps 753 mmHg 55%
    09:00 +32°C° 0 mm 4 mps 753 mmHg 48%
    10:00 +34°C° 0 mm 5 mps 753 mmHg 41%
    11:00 +34°C° 0 mm 5 mps 753 mmHg 39%
    12:00 +34°C° 0 mm 5 mps 753 mmHg 36%
    13:00 +35°C° 0 mm 5 mps 753 mmHg 34%
    14:00 +34°C° 0 mm 6 mps 752 mmHg 36%
    15:00 +34°C° 0 mm 6 mps 752 mmHg 37%
    16:00 +33°C° 0 mm 6 mps 752 mmHg 39%
    17:00 +32°C° 0 mm 6 mps 752 mmHg 44%
    18:00 +29°C° 0 mm 6 mps 752 mmHg 49%
    19:00 +27°C° 0 mm 5 mps 752 mmHg 55%
    20:00 +27°C° 0 mm 5 mps 752 mmHg 57%
    21:00 +26°C° 0 mm 5 mps 753 mmHg 60%
    22:00 +25°C° 0 mm 5 mps 753 mmHg 63%
    23:00 +25°C° 0 mm 5 mps 753 mmHg 65%

    26 July, Wednesday

    Time Temperature Precipitation Wind Pressure Humidity
    00:00 +23°C° 0 mm 4 mps 753 mmHg 67%
    01:00 +23°C° 0 mm 4 mps 753 mmHg 69%
    02:00 +23°C° 0 mm 4 mps 752 mmHg 71%
    03:00 +22°C° 0 mm 4 mps 752 mmHg 73%
    04:00 +22°C° 0 mm 4 mps 752 mmHg 75%
    05:00 +23°C° 0 mm 4 mps 752 mmHg 72%
    06:00 +26°C° 0 mm 4 mps 752 mmHg 70%
    07:00 +27°C° 0 mm 4 mps 753 mmHg 68%
    08:00 +28°C° 0 mm 4 mps 753 mmHg 62%
    09:00 +29°C° 0 mm 4 mps 753 mmHg 57%
    10:00 +32°C° 0 mm 4 mps 753 mmHg 51%
    11:00 +32°C° 0 mm 5 mps 753 mmHg 48%
    12:00 +32°C° 0 mm 5 mps 753 mmHg 45%
    13:00 +33°C° 0 mm 5 mps 753 mmHg 42%
    14:00 +33°C° 0 mm 6 mps 753 mmHg 43%
    15:00 +32°C° 0 mm 6 mps 753 mmHg 44%
    16:00 +32°C° 0 mm 6 mps 753 mmHg 45%
    17:00 +29°C° 0 mm 6 mps 753 mmHg 53%
    18:00 +28°C° 0 mm 5 mps 753 mmHg 61%
    19:00 +26°C° 0 mm 5 mps 753 mmHg 69%
    20:00 +25°C° 0.1 mm 5 mps 753 mmHg 73%
    21:00 +25°C° 0.1 mm 5 mps 754 mmHg 77%
    22:00 +23°C° 0.1 mm 6 mps 754 mmHg 81%
    23:00 +23°C° 0.1 mm 6 mps 754 mmHg 82%

    27 July, Thursday

    Time Temperature Precipitation Wind Pressure Humidity
    00:00 +22°C° 0.1 mm 6 mps 754 mmHg 83%
    01:00 +22°C° 0.1 mm 6 mps 754 mmHg 84%
    02:00 +22°C° 0.2 mm 6 mps 754 mmHg 85%
    03:00 +21°C° 0.2 mm 6 mps 754 mmHg 86%
    04:00 +21°C° 0.2 mm 6 mps 754 mmHg 88%
    05:00 +22°C° 0.2 mm 6 mps 754 mmHg 80%
    06:00 +24°C° 0.2 mm 6 mps 754 mmHg 73%
    07:00 +26°C° 0.2 mm 6 mps 755 mmHg 66%
    08:00 +27°C° 0.2 mm 6 mps 755 mmHg 59%
    09:00 +29°C° 0.2 mm 6 mps 755 mmHg 52%
    10:00 +30°C° 0.2 mm 6 mps 755 mmHg 45%
    11:00 +30°C° 0 mm 6 mps 755 mmHg 44%
    12:00 +32°C° 0 mm 6 mps 755 mmHg 43%
    13:00 +32°C° 0 mm 5 mps 755 mmHg 42%
    14:00 +32°C° 0 mm 5 mps 755 mmHg 44%
    15:00 +32°C° 0 mm 4 mps 755 mmHg 46%
    16:00 +30°C° 0 mm 3 mps 755 mmHg 48%
    17:00 +29°C° 0.2 mm 3 mps 755 mmHg 54%
    18:00 +28°C° 0.2 mm 2 mps 756 mmHg 60%
    19:00 +26°C° 0.2 mm 1 mps 756 mmHg 66%
    20:00 +26°C° 0.2 mm 2 mps 757 mmHg 69%
    21:00 +25°C° 0.2 mm 3 mps 757 mmHg 72%
    22:00 +24°C° 0.2 mm 3 mps 757 mmHg 75%
    23:00 +24°C° 0.1 mm 3 mps 757 mmHg 75%

    28 July, Friday

    Time Temperature Precipitation Wind Pressure Humidity
    00:00 +24°C° 0.1 mm 3 mps 757 mmHg 74%
    01:00 +24°C° 0.1 mm 2 mps 757 mmHg 74%
    02:00 +22°C° 0.3 mm 3 mps 757 mmHg 74%
    03:00 +22°C° 0.3 mm 3 mps 757 mmHg 74%
    04:00 +21°C° 0.3 mm 3 mps 758 mmHg 74%
    05:00 +22°C° 0.2 mm 3 mps 758 mmHg 69%
    06:00 +25°C° 0.2 mm 3 mps 758 mmHg 64%
    07:00 +26°C° 0.2 mm 2 mps 758 mmHg 59%
    08:00 +27°C° 0 mm 3 mps 759 mmHg 54%
    09:00 +29°C° 0 mm 3 mps 759 mmHg 49%
    10:00 +30°C° 0 mm 3 mps 759 mmHg 44%
    11:00 +32°C° 0 mm 4 mps 759 mmHg 43%
    12:00 +33°C° 0 mm 5 mps 759 mmHg 42%
    13:00 +33°C° 0 mm 6 mps 759 mmHg 41%
    14:00 +33°C° 0 mm 6 mps 759 mmHg 42%
    15:00 +33°C° 0 mm 7 mps 759 mmHg 44%
    16:00 +32°C° 0 mm 7 mps 759 mmHg 45%
    17:00 +30°C° 0 mm 7 mps 759 mmHg 50%
    18:00 +28°C° 0 mm 6 mps 759 mmHg 56%
    19:00 +27°C° 0 mm 6 mps 760 mmHg 61%
    20:00 +26°C° 0 mm 6 mps 760 mmHg 64%
    21:00 +25°C° 0 mm 5 mps 760 mmHg 67%
    22:00 +23°C° 0 mm 5 mps 761 mmHg 70%
    23:00 +23°C° 0 mm 5 mps 761 mmHg 69%
    Show more